This demonstration page uses our WeatherBlox Daily Observations layout. Learn more.

Left ArrowRight Arrow

Hourly Observations for September 2, 2022

Temp ( °F °C ) Dew Point ( °F °C ) Humidity (%) Winds ( mph kmh ) Pressure ( in mb ) Visibility ( mi km ) Precip ( " mm )
12:55 am 00:55 Clear 69 20.7 62 16.7 78 78 SE 7 11 29.92 1013 10 16 0.00 0.00
1:55 am 01:55 Clear 66 19 62 16.6 86 86 ESE 5 7 29.90 1012 10 16 0.00 0.00
2:55 am 02:55 Clear 67 19.2 62 16.6 85 85 Calm 29.90 1013 10 16 0.00 0.00
4:55 am 04:55 Clear 66 18.8 62 16.6 87 87 ESE 3 6 29.91 1013 10 16 0.00 0.00
5:55 am 05:55 Clear 65 18.5 62 16.5 88 88 ESE 5 7 29.90 1013 10 16 0.00 0.00
6:55 am 06:55 Sunny 65 18.5 62 16.5 88 88 Calm 29.92 1013 10 16 0.00 0.00
7:55 am 07:55 Sunny 69 20.3 63 17.3 83 83 SSE 3 6 29.93 1014 10 16 0.00 0.00
8:55 am 08:55 Sunny 73 22.8 66 18.7 78 78 S 6 9 29.94 1014 10 16 0.00 0.00
9:55 am 09:55 Sunny 78 25.3 67 19.4 70 70 S 9 15 29.95 1014 10 16 0.00 0.00
10:55 am 10:55 Mostly Sunny 81 27.2 68 19.8 64 64 S 7 11 29.94 1014 10 16 0.00 0.00
11:55 am 11:55 Sunny 85 29.6 68 19.9 56 56 SSW 12 19 29.93 1014 10 16 0.00 0.00
12:55 pm 12:55 Sunny 90 32.3 66 18.8 45 45 S 15 24 29.89 1012 8 13 0.00 0.00
1:55 pm 13:55 Sunny 93 33.7 64 17.8 39 39 S 13 20 29.91 1013 10 16 0.00 0.00
2:55 pm 14:55 Sunny 94 34.3 63 17 36 36 SSW 10 17 29.91 1013 10 16 0.00 0.00
3:55 pm 15:55 Sunny 94 34.7 62 16.9 35 35 W 10 17 29.91 1013 10 16 0.00 0.00
4:55 pm 16:55 Sunny 94 34.7 62 16.9 35 35 SW 8 13 29.91 1013 7 11 0.00 0.00
5:55 pm 17:55 Sunny 94 34.3 63 17 36 36 S 6 9 29.92 1013 10 16 0.00 0.00
6:55 pm 18:55 Sunny 92 33.2 67 19.3 44 44 Calm 29.93 1013 10 16 0.00 0.00
7:55 pm 19:55 Clear 84 28.9 69 20.3 60 60 ESE 3 6 29.94 1014 10 16 0.00 0.00
8:55 pm 20:55 Clear 82 27.6 68 19.9 63 63 E 3 6 29.97 1015 10 16 0.00 0.00
9:55 pm 21:55 Mostly Clear 79 26 68 20.1 70 70 Calm 30.00 1016 10 16 0.00 0.00
10:55 pm 22:55 Mostly Cloudy 78 25.8 67 19.7 69 69 E 5 7 30.01 1016 10 16 0.00 0.00
11:55 pm 23:55 Mostly Clear 79 26.1 68 20 69 69 S 7 11 29.97 1015 10 16 0.00 0.00

Powered by AerisWeather